Date String (YYYY-MM-DD hh:mm:ss) UTC,Instrument flags,absolute air pressure of the measurement (hPa),sample flow rate (lpm),inlet stack bypass flow (lpm),air temperature of the measurement (°C),ambient temperature measured by the external sensor (°C),aerosol sample conditioner tube jacket temperature (°C),OPC LED temperature (°C),internal box temperature (°C),relative humidity of the measurement (%),span deviation,mass concentration of particles derived from Lorenz-Mie calculation of OPC scattering (μg/m³),mass concentration of particles derived from Lorenz-Mie calculation of OPC scattering (μg/m³),mass concentration of particles derived from Lorenz-Mie calculation of OPC scattering (μg/m³)
DateTimeUTC,F1_M11,P_M11,Q1_M11,Q2_M11,T1_M11,T2_M11,T3_M11,T4_M11,T5_M11,U1_M11,ZSPAN_M11,X2_M11,X0_M11,X1_M11
2024-04-19 00:00:00,SystemResetWarning,0833.7,5.00,000.00,020.0,019.5,000.0,028.6,021.9,022.5,0000.0,0005.40,0010.63,0005.06
2024-04-19 00:01:00,SystemResetWarning,0833.7,5.00,000.00,020.0,019.5,000.0,028.6,021.9,022.4,0000.0,0005.44,0010.35,0005.09
2024-04-19 00:02:00,SystemResetWarning,0833.7,5.00,000.00,020.0,019.4,000.0,028.6,021.9,022.4,0000.0,0005.44,0011.29,0005.10
2024-04-19 00:03:00,SystemResetWarning,0833.6,5.00,000.00,020.0,019.4,000.0,028.6,021.9,022.3,0000.0,0005.47,0011.33,0005.12
2024-04-19 00:04:00,SystemResetWarning,0833.7,5.01,000.00,020.0,019.4,000.0,028.6,021.9,022.3,0000.0,0005.54,0011.66,0005.14
2024-04-19 00:05:00,SystemResetWarning,0833.7,5.00,000.00,020.0,019.5,000.0,028.6,021.8,022.3,0000.0,0005.61,0011.83,0005.15
2024-04-19 00:06:00,SystemResetWarning,0833.7,5.00,000.00,020.0,019.5,000.0,028.6,021.9,022.2,0000.0,0005.63,0011.10,0005.16
2024-04-19 00:07:00,SystemResetWarning,0833.7,5.00,000.00,020.0,019.5,000.0,028.6,021.9,022.1,0000.0,0005.65,0010.76,0005.16
2024-04-19 00:08:00,SystemResetWarning,0833.6,5.00,000.00,020.0,019.5,000.0,028.6,021.9,022.2,0000.0,0005.67,0010.99,0005.17
2024-04-19 00:09:00,SystemResetWarning,0833.7,5.00,000.00,020.0,019.5,000.0,028.6,021.8,022.3,0000.0,0005.67,0010.30,0005.17
2024-04-19 00:10:00,SystemResetWarning,0833.7,4.99,000.00,020.0,019.4,000.0,028.6,021.9,022.3,0000.0,0005.70,0010.31,0005.19
2024-04-19 00:11:00,SystemResetWarning,0833.7,5.00,000.00,020.0,019.5,000.0,028.6,021.9,022.4,0000.0,0005.70,0010.97,0005.19
2024-04-19 00:12:00,SystemResetWarning,0833.7,5.00,000.00,020.0,019.5,000.0,028.6,021.9,022.1,0000.0,0005.71,0010.93,0005.19
2024-04-19 00:13:00,SystemResetWarning,0833.7,5.00,000.00,020.0,019.5,000.0,028.6,021.9,022.2,0000.0,0005.72,0010.02,0005.19
2024-04-19 00:14:00,SystemResetWarning,0833.6,5.01,000.00,020.0,019.5,000.0,028.6,021.9,022.2,0000.0,0005.70,0009.82,0005.19
2024-04-19 00:15:00,SystemResetWarning,0833.6,5.01,000.00,020.0,019.5,000.0,028.6,021.9,022.2,0000.0,0005.63,0009.33,0005.17
2024-04-19 00:16:00,SystemResetWarning,0833.6,4.99,000.00,020.0,019.5,000.0,028.6,021.8,022.2,0000.0,0005.57,0009.85,0005.15
2024-04-19 00:17:00,SystemResetWarning,0833.7,5.00,000.00,020.0,019.5,000.0,028.6,021.8,022.0,0000.0,0005.54,0010.05,0005.13
2024-04-19 00:18:00,SystemResetWarning,0833.7,5.01,000.00,020.0,019.5,000.0,028.6,021.8,022.0,0000.0,0005.54,0010.05,0005.11
2024-04-19 00:19:00,SystemResetWarning,0833.6,5.01,000.00,020.0,019.5,000.0,028.6,021.9,022.0,0000.0,0005.54,0009.82,0005.10
2024-04-19 00:20:00,SystemResetWarning,0833.7,5.01,000.00,020.0,019.5,000.0,028.6,021.9,022.1,0000.0,0005.54,0009.68,0005.09
2024-04-19 00:21:00,SystemResetWarning,0833.7,5.00,000.00,020.0,019.4,000.0,028.6,021.9,021.9,0000.0,0005.54,0010.44,0005.07
2024-04-19 00:22:00,SystemResetWarning,0833.7,5.00,000.00,020.0,019.4,000.0,028.6,021.9,021.8,0000.0,0005.51,0009.91,0005.04
2024-04-19 00:23:00,SystemResetWarning,0833.7,4.99,000.00,020.0,019.4,000.0,028.6,021.9,021.9,0000.0,0005.50,0010.03,0005.02
2024-04-19 00:24:00,SystemResetWarning,0833.7,5.00,000.00,020.0,019.4,000.0,028.6,021.9,021.9,0000.0,0005.48,0010.17,0005.00
2024-04-19 00:25:00,SystemResetWarning,0833.7,5.00,000.00,020.0,019.4,000.0,028.6,021.9,021.9,0000.0,0005.49,0010.48,0004.99
2024-04-19 00:26:00,SystemResetWarning,0833.8,4.99,000.00,020.0,019.4,000.0,028.6,021.9,022.0,0000.0,0005.50,0010.53,0004.99
2024-04-19 00:27:00,SystemResetWarning,0833.7,5.00,000.00,020.0,019.4,000.0,028.6,021.9,022.1,0000.0,0005.49,0009.79,0005.00
2024-04-19 00:28:00,SystemResetWarning,0833.8,5.00,000.00,020.1,019.4,000.0,028.6,021.9,022.2,0000.0,0005.49,0009.58,0005.00
2024-04-19 00:29:00,SystemResetWarning,0833.8,5.00,000.00,020.0,019.4,000.0,028.6,021.9,022.1,0000.0,0005.47,0009.62,0005.01
2024-04-19 00:30:00,SystemResetWarning,0833.8,5.00,000.00,020.0,019.4,000.0,028.6,021.8,022.2,0000.0,0005.46,0009.63,0005.00
2024-04-19 00:31:00,SystemResetWarning,0833.8,5.00,000.00,020.0,019.4,000.0,028.6,021.8,022.1,0000.0,0005.46,0009.66,0004.99
2024-04-19 00:32:00,SystemResetWarning,0833.8,4.99,000.00,020.0,019.4,000.0,028.6,021.8,022.2,0000.0,0005.45,0008.99,0005.00
2024-04-19 00:33:00,SystemResetWarning,0833.8,4.99,000.00,020.0,019.4,000.0,028.6,021.8,022.2,0000.0,0005.44,0009.07,0005.02
2024-04-19 00:34:00,SystemResetWarning,0833.8,5.00,000.00,020.0,019.4,000.0,028.6,021.8,022.2,0000.0,0005.47,0009.14,0005.03
2024-04-19 00:35:00,SystemResetWarning,0833.8,5.00,000.00,020.0,019.4,000.0,028.6,021.8,022.2,0000.0,0005.52,0009.39,0005.06
2024-04-19 00:36:00,SystemResetWarning,0833.8,5.00,000.00,020.0,019.4,000.0,028.6,021.8,022.2,0000.0,0005.53,0009.13,0005.07
2024-04-19 00:37:00,SystemResetWarning,0833.8,5.01,000.00,020.0,019.4,000.0,028.6,021.8,022.2,0000.0,0005.56,0009.20,0005.08
2024-04-19 00:38:00,SystemResetWarning,0833.8,5.01,000.00,020.0,019.4,000.0,028.6,021.8,022.2,0000.0,0005.59,0009.36,0005.09
2024-04-19 00:39:00,SystemResetWarning,0833.8,5.00,000.00,020.0,019.3,000.0,028.6,021.8,022.2,0000.0,0005.60,0009.44,0005.10
2024-04-19 00:40:00,SystemResetWarning,0833.8,5.00,000.00,020.0,019.4,000.0,028.6,021.8,022.2,0000.0,0005.62,0009.42,0005.11
2024-04-19 00:41:00,SystemResetWarning,0833.8,5.00,000.00,020.0,019.3,000.0,028.6,021.8,022.3,0000.0,0005.63,0009.37,0005.13
2024-04-19 00:42:00,SystemResetWarning,0833.8,5.01,000.00,020.0,019.3,000.0,028.6,021.8,022.3,0000.0,0005.61,0009.48,0005.14
2024-04-19 00:43:00,SystemResetWarning,0833.8,5.00,000.00,020.0,019.3,000.0,028.6,021.8,022.0,0000.0,0005.59,0009.55,0005.13
2024-04-19 00:44:00,SystemResetWarning,0833.7,4.99,000.00,020.0,019.3,000.0,028.5,021.8,022.0,0000.0,0005.59,0009.28,0005.10
2024-04-19 00:45:00,SystemResetWarning,0833.8,4.99,000.00,020.0,019.3,000.0,028.5,021.8,021.8,0000.0,0005.52,0009.03,0005.06
2024-04-19 00:46:00,SystemResetWarning,0833.8,4.99,000.00,020.0,019.3,000.0,028.5,021.8,021.9,0000.0,0005.44,0008.65,0004.99
2024-04-19 00:47:00,SystemResetWarning,0833.8,5.01,000.00,020.0,019.3,000.0,028.5,021.8,021.9,0000.0,0005.39,0008.89,0004.94
2024-04-19 00:48:00,SystemResetWarning,0833.9,5.01,000.00,020.0,019.3,000.0,028.5,021.8,021.9,0000.0,0005.36,0009.17,0004.89
2024-04-19 00:49:00,SystemResetWarning,0833.9,5.01,000.00,020.0,019.3,000.0,028.5,021.8,021.9,0000.0,0005.32,0010.06,0004.82
2024-04-19 00:50:00,SystemResetWarning,0833.8,4.99,000.00,020.0,019.4,000.0,028.5,021.8,021.9,0000.0,0005.27,0010.17,0004.75
2024-04-19 00:51:00,SystemResetWarning,0833.8,4.99,000.00,020.0,019.4,000.0,028.5,021.8,021.9,0000.0,0005.24,0010.23,0004.71
2024-04-19 00:52:00,SystemResetWarning,0834.0,5.00,000.00,020.0,019.4,000.0,028.5,021.8,022.0,0000.0,0005.25,0010.64,0004.67
2024-04-19 00:53:00,SystemResetWarning,0833.9,5.02,000.00,020.0,019.4,000.0,028.5,021.8,022.0,0000.0,0005.24,0010.93,0004.64
2024-04-19 00:54:00,SystemResetWarning,0834.0,5.00,000.00,020.0,019.4,000.0,028.5,021.8,022.1,0000.0,0005.24,0011.13,0004.64
2024-04-19 00:55:00,SystemResetWarning,0833.9,4.99,000.00,020.0,019.4,000.0,028.5,021.8,022.2,0000.0,0005.24,0011.56,0004.66
2024-04-19 00:56:00,SystemResetWarning,0833.9,4.99,000.00,020.0,019.4,000.0,028.5,021.8,022.4,0000.0,0005.27,0011.64,0004.69
2024-04-19 00:57:00,SystemResetWarning,0833.8,5.00,000.00,020.0,019.4,000.0,028.5,021.8,022.5,0000.0,0005.32,0011.59,0004.73
2024-04-19 00:58:00,SystemResetWarning,0833.8,5.00,000.00,020.0,019.4,000.0,028.5,021.8,022.5,0000.0,0005.33,0011.46,0004.75
2024-04-19 00:59:00,SystemResetWarning,0833.8,5.01,000.00,020.0,019.4,000.0,028.5,021.8,022.4,0000.0,0005.34,0011.48,0004.78
